CZ-6A DEB, 61367

Orbit data source: Space-Track

CZ-6A DEB, 61367 is space debris in LEO originally from a launch on Tue, 06 Aug 2024 UTC launched from the Taiyaun Space Center, China (TSC). Debris objects in space refer to the collection of defunct objects orbiting the Earth. Examples of debris include non-operational satellites, rocket bodies, and fragments generated from explosions, collisions, or faulty payload assembly.

Loading next visibility...
Identifier
61367, 2024-140WG
Orbit
LEO
Country
Flag of CNCN / PRC
Related business
Manufacturer
SAST
Mission
Spacecraft
Bus & Motor
Unknown
Mass
Unknown
Launch date (UTC)
2024-08-06 (2 years ago)
Launch vehicle
Unknown
Launch site
Taiyaun Space Center, China (TSC)
Object type
Payload
Rocket body
Debris
Shape & HBR
Unknown shape, 0.1 m
Radar Cross Section
Small (<0.1 m²)

Expand to show TLE details & history
Last TLE update: 14 hours ago

TLE from 14 hours ago
0 CZ-6A DEB
1 61367U 24140WG  26130.07540331  .00000477  00000-0  19924-3 0  9995
2 61367  88.7703 261.1686 0026562 266.0295  93.7861 14.24348939 87218
Epoch: 2026-05-10T01:48Z
TLE epoch observation values (Epoch: 2026-05-10T01:48:34.845Z)
Latitude
-0.00004°
Longitude
6.13972°
Altitude
815.052 km
Speed
7.445 km/s
True Right ascension
17h 24m 40s
True Declination
0° 00' 00"
Sunlit
Object was in full shadow at epoch
Visualization orbit readout
Latitude
Unknown
Longitude
Unknown
Altitude
Unknown
Speed
Unknown
Apparent Right ascension
Unknown
Apparent Declination
Unknown
Sunlit
N/A
Visualization observer readout
Local Sidereal Time
00:22:49
Azimuth
Unknown
Elevation
Unknown
Doppler factor
Unknown
Orbital elements
Apogee altitude
826.716 km
Perigee altitude
788.542 km
Semi-major axis
7,185.766 km
Eccentricity
0.00266
Inclination
88.7703°
RAAN
261.1686°
Arg. of periapsis
266.0295°
True anomaly
94.08975°
Mean anomaly
93.7861°
Eccentric anomaly
93.93793°
Mean motion
3.56315 °/min
Orbital period
101.03 mins
BSTAR
0.00019924
Loading maneuver chart data...
Computing Atmospheric mass density...
Loading historical data...
Loading historical data...
Loading historical data...
Loading historical data...
Loading historical data...
Loading historical data...
Loading historical data...

Documentation

Showing up to 5 results
|